[[{"header":{"parameterUnit":"m.s-1","parameterCategory":1,"la1":30.2991,"la2":30.254,"lo1":-89.0895,"lo2":-89.0444,"dy":0.0017,"dx":0.0017,"nx":28,"ny":28,"refTime":"2024-05-04T09:00:00:Z","depth":0,"parameterNumber":2,"parameterNumberName":"U-component_of_WINDS"},"data":[0,0,0,0,0,0,0,0,0,0,0,0,0,0,0,0,0,0,0,0,0,0,0,0,0,0,0,0,0,0,0,0,0,0,0,0,0,0,0,0,0,0,0,0,0,0,0,0,0,0,0,0,0,0,0,0,0,0,-2.2445,-2.2444,0,-2.242,-2.242,-2.242,-2.2342,-2.234,-2.2338,-2.2337,-2.2313,-2.2314,-2.2315,0,0,0,0,0,0,0,0,0,0,0,0,0,-2.2426,-2.2427,-2.2445,-2.2444,-2.2444,-2.242,-2.242,-2.2419,-2.2342,-2.234,-2.2338,-2.2336,-2.2313,-2.2314,-2.2315,0,0,0,0,0,0,0,0,0,0,0,0,0,-2.2422,-2.2427,-2.2445,-2.2402,-2.2398,-2.242,-2.242,-2.2419,-2.2343,-2.234,-2.2337,-2.2335,-2.2313,-2.2314,-2.2316,-2.2377,0,0,-2.232,-2.2321,0,0,0,0,0,0,0,0,-2.2422,-2.2422,-2.2409,-2.2405,-2.2401,-2.2381,-2.2405,-2.2405,-2.2343,-2.2364,-2.2337,-2.2334,-2.2338,-2.2337,-2.2339,-2.2376,-2.2375,-2.232,-2.2321,-2.2322,-2.2322,0,0,0,0,0,0,0,-2.2422,-2.2423,-2.2435,-2.2409,-2.2404,-2.2385,-2.2382,-2.2404,-2.2366,-2.2362,-2.2356,-2.2354,-2.2336,-2.2337,-2.2337,-2.2374,-2.232,-2.2322,-2.2322,-2.2323,-2.2461,-2.2463,0,0,0,0,0,0,-2.2428,-2.2424,-2.2436,-2.2434,-2.2405,-2.2388,-2.2384,-2.239,-2.2365,-2.2359,-2.2356,-2.2351,-2.2336,-2.2336,-2.2336,-2.2406,-2.2322,-2.2323,-2.2324,-2.2458,-2.2461,-2.2464,0,0,0,0,0,0,-2.2428,-2.243,-2.2437,-2.2427,-2.2427,-2.2391,-2.2399,-2.2391,-2.2393,-2.2361,-2.2354,-2.2365,-2.2334,-2.2334,-2.2367,-2.2404,-2.2324,-2.2325,-2.2455,-2.2459,-2.2463,-2.2547,0,0,0,0,0,0,-2.2428,-2.2431,-2.2453,-2.2428,-2.2428,-2.2468,-2.2401,-2.2393,-2.2395,-2.2388,-2.2368,-2.2362,-2.2332,-2.2365,-2.2369,-2.2405,-2.2326,-2.2451,-2.2457,-2.2462,-2.2541,-2.2553,-2.2564,0,0,0,0,0,-2.2428,-2.2478,-2.2455,-2.2456,-2.2455,-2.247,-2.2469,-2.2433,-2.2399,-2.2421,-2.2401,-2.2363,-2.24,-2.2369,-2.2372,-2.241,-2.2449,-2.2455,-2.2461,-2.2535,-2.2551,-2.2564,0,0,0,0,0,0,-2.2508,-2.2474,-2.2448,-2.2491,-2.2484,-2.2457,-2.2484,-2.2451,-2.2454,-2.2447,-2.2402,-2.2399,-2.2438,-2.2427,-2.2394,-2.2468,-2.2418,-2.2425,-2.2473,-2.2488,-2.25,-2.2501,-2.2328,0,0,0,0,0,-2.2531,-2.2546,-2.2515,-2.2557,-2.2554,-2.252,-2.2525,-2.2498,-2.2489,-2.2486,-2.2468,-2.2461,-2.2472,-2.2479,-2.2487,-2.2539,-2.2534,-2.2566,-2.2578,-2.2588,-2.2595,-2.2622,-2.2636,-2.2485,-2.2485,-2.2485,0,0,-2.2578,-2.2561,-2.2573,-2.2572,-2.2564,-2.258,-2.2518,-2.2538,-2.255,-2.2489,-2.2519,-2.2506,-2.2496,-2.2539,-2.2557,-2.2531,-2.2635,-2.2596,-2.2604,-2.2605,-2.263,-2.2644,-2.2657,-2.2489,-2.2488,-2.2488,0,0,-2.2673,-2.2661,-2.2695,-2.2687,-2.2675,-2.2652,-2.266,-2.2638,-2.2627,-2.2656,-2.261,-2.2625,-2.2643,-2.2637,-2.2637,-2.2731,-2.2696,-2.2735,-2.2796,-2.2824,-2.2835,-2.2846,-2.2879,-2.2892,-2.2741,-2.2742,-2.2742,0,-2.2733,-2.2756,-2.2716,-2.2739,-2.2741,-2.2686,-2.272,-2.2714,-2.2706,-2.2708,-2.2679,-2.2701,-2.269,-2.2731,-2.2754,-2.2756,-2.2764,-2.2736,-2.2837,-2.2847,-2.2856,-2.2887,-2.29,-2.2746,-2.2746,-2.2745,-2.2745,0,-2.2831,-2.2848,-2.2876,-2.2868,-2.2873,-2.2902,-2.2867,-2.2876,-2.2849,-2.283,-2.286,-2.2846,-2.2849,-2.2857,-2.2831,-2.2895,-2.2879,-2.2845,-2.2793,-2.2876,-2.2905,-2.2916,-2.2753,-2.2752,-2.275,-2.2749,0,0,-2.2975,-2.2945,-2.2956,-2.2952,-2.2935,-2.2947,-2.2974,-2.2977,-2.2986,-2.2982,-2.3003,-2.3021,-2.2988,-2.2988,-2.2961,-2.2985,-2.306,-2.2947,-2.2946,-2.2968,-2.313,-2.3156,-2.3171,-2.3037,-2.3039,-2.3041,-2.3131,0,-2.3064,-2.3107,-2.3073,-2.3122,-2.3137,-2.3086,-2.3109,-2.3101,-2.3084,-2.3095,-2.3076,-2.3089,-2.3045,-2.3044,-2.3066,-2.3047,-2.3092,-2.304,-2.3057,-2.3058,-2.3061,-2.3186,-2.3214,-2.3299,-2.3142,-2.3144,-2.3145,0,-2.3174,-2.3175,-2.3226,-2.3205,-2.321,-2.3232,-2.3232,-2.3243,-2.3234,-2.322,-2.322,-2.3187,-2.3212,-2.3162,-2.3197,-2.3162,-2.3167,-2.3159,-2.3162,-2.3162,-2.3107,-2.3189,-2.3326,-2.3339,-2.3163,-2.3161,-2.316,0,-2.3274,-2.3288,-2.332,-2.3318,-2.3295,-2.3312,-2.3303,-2.3291,-2.3295,-2.3296,-2.3298,-2.3303,-2.3305,-2.3309,-2.3278,-2.3245,-2.3317,-2.3265,-2.3306,-2.3307,-2.3324,-2.3323,-2.3463,-2.3328,-2.3328,-2.3327,-2.3327,0,-2.3378,-2.3411,-2.3365,-2.3384,-2.342,-2.3381,-2.3418,-2.3404,-2.3394,-2.341,-2.3367,-2.3383,-2.3341,-2.3354,-2.333,-2.3363,-2.3364,-2.3354,-2.3347,-2.3358,-2.3359,-2.336,-2.3354,-2.3331,-2.333,-2.3329,-2.3329,0,-2.3495,-2.3465,-2.3497,-2.3473,-2.3468,-2.3495,-2.3475,-2.3492,-2.3472,-2.3494,-2.3497,-2.3466,-2.3479,-2.3448,-2.3457,-2.3441,-2.3488,-2.3471,-2.3491,-2.3486,-2.3529,-2.3526,-2.3674,-2.3692,-2.3546,-2.3547,-2.3549,0,-2.3563,-2.3587,-2.3566,-2.3573,-2.3567,-2.358,-2.3584,-2.3547,-2.3553,-2.3545,-2.3564,-2.3573,-2.3578,-2.3601,-2.358,-2.3586,-2.357,-2.3622,-2.3571,-2.3581,-2.3571,-2.357,-2.3572,-2.3632,-2.3634,-2.3635,-2.3637,0,-2.3687,-2.3671,-2.3678,-2.3681,-2.3687,-2.3688,-2.3685,-2.3694,-2.3654,-2.3664,-2.3676,-2.368,-2.3689,-2.3699,-2.37,-2.3692,-2.3658,-2.3653,-2.3663,-2.3674,-2.3684,-2.3679,-2.3519,-2.365,-2.3648,-2.3647,-2.3647,-2.3646,-2.3781,-2.3801,-2.3788,-2.3798,-2.3792,-2.3791,-2.3807,-2.3789,-2.3798,-2.3802,-2.3779,-2.3797,-2.3787,-2.3786,-2.3782,-2.3795,-2.3772,-2.3786,-2.379,-2.3794,-2.3801,-2.3682,-2.3795,-2.3795,-2.3795,-2.3794,-2.3794,0,-2.3903,-2.3892,-2.3902,-2.39,-2.3908,-2.3875,-2.387,-2.3879,-2.3895,-2.3889,-2.3895,-2.391,-2.3919,-2.3899,-2.3905,-2.392,-2.3905,-2.3923,-2.3922,-2.392,-2.3822,-2.3812,-2.3935,-2.3935,-2.3935,-2.3935,-2.3935,-2.3935,-2.3967,-2.3998,-2.3981,-2.4009,-2.3998,-2.4014,-2.4015,-2.4014,-2.4009,-2.4027,-2.4034,-2.4021,-2.4009,-2.4014,-2.4022,-2.4016,-2.402,-2.4044,-2.4033,-2.3941,-2.3927,-2.3914,-2.3905,-2.4046,-2.4046,-2.413,-2.4131,-2.4132]},{"header":{"parameterUnit":"m.s-1","parameterCategory":1,"la1":30.2991,"la2":30.254,"lo1":-89.0895,"lo2":-89.0444,"dy":0.0017,"dx":0.0017,"nx":28,"ny":28,"refTime":"2024-05-04T09:00:00:Z","depth":0,"parameterNumber":3,"parameterNumberName":"V-component_of_WINDS"},"data":[0,0,0,0,0,0,0,0,0,0,0,0,0,0,0,0,0,0,0,0,0,0,0,0,0,0,0,0,0,0,0,0,0,0,0,0,0,0,0,0,0,0,0,0,0,0,0,0,0,0,0,0,0,0,0,0,0,0,1.0517,1.0517,0,1.0489,1.0489,1.0488,1.0452,1.0451,1.0451,1.045,1.042,1.042,1.042,0,0,0,0,0,0,0,0,0,0,0,0,0,1.0541,1.0541,1.0518,1.0517,1.0517,1.0489,1.0489,1.0488,1.0452,1.0451,1.0451,1.045,1.0421,1.042,1.042,0,0,0,0,0,0,0,0,0,0,0,0,0,1.0523,1.0541,1.0518,1.0495,1.0493,1.0489,1.0488,1.0488,1.0452,1.0451,1.045,1.045,1.0421,1.042,1.042,1.0435,0,0,1.0419,1.0419,0,0,0,0,0,0,0,0,1.0525,1.0523,1.0499,1.0497,1.0494,1.0473,1.0486,1.047,1.0452,1.0468,1.045,1.0449,1.0439,1.0437,1.0433,1.0434,1.0432,1.0419,1.0418,1.0418,1.0418,0,0,0,0,0,0,0,1.0526,1.0524,1.0506,1.0499,1.0496,1.0487,1.0484,1.0483,1.0458,1.0466,1.0464,1.0461,1.0437,1.0434,1.0432,1.0432,1.0419,1.0418,1.0418,1.0418,1.0444,1.0445,0,0,0,0,0,0,1.053,1.0525,1.0507,1.0505,1.0508,1.0487,1.0483,1.0481,1.0458,1.0454,1.0462,1.0459,1.0435,1.0433,1.0431,1.0448,1.0418,1.0418,1.0418,1.0443,1.0444,1.0445,0,0,0,0,0,0,1.0531,1.0529,1.0508,1.0514,1.0511,1.0488,1.0485,1.0481,1.0477,1.0455,1.045,1.0462,1.0434,1.0432,1.0434,1.0446,1.0418,1.0417,1.0442,1.0443,1.0445,1.0481,0,0,0,0,0,0,1.0532,1.053,1.0535,1.0515,1.0511,1.0512,1.0486,1.0481,1.0477,1.0473,1.0454,1.045,1.0433,1.0435,1.0434,1.0445,1.0417,1.0441,1.0443,1.0444,1.0478,1.0483,1.0487,0,0,0,0,0,1.0533,1.0546,1.0535,1.0533,1.0517,1.0513,1.0511,1.0491,1.0478,1.0483,1.0469,1.0451,1.0445,1.0436,1.0434,1.0445,1.044,1.0442,1.0444,1.0476,1.0482,1.0487,0,0,0,0,0,0,1.0568,1.0543,1.0531,1.0538,1.0528,1.0507,1.0513,1.0497,1.049,1.0488,1.0463,1.0459,1.0465,1.0455,1.0446,1.0459,1.044,1.0442,1.0465,1.047,1.0475,1.0477,1.0417,0,0,0,0,0,1.0576,1.0575,1.0553,1.0562,1.0557,1.0536,1.0533,1.0519,1.0507,1.0503,1.0489,1.0478,1.0474,1.0472,1.0467,1.0477,1.0473,1.0484,1.0488,1.0492,1.0494,1.0499,1.0504,1.0452,1.0452,1.0452,0,0,1.0594,1.058,1.0581,1.0568,1.0559,1.0558,1.0533,1.0533,1.0532,1.0503,1.0505,1.0494,1.0481,1.0488,1.049,1.048,1.0508,1.0495,1.0498,1.0498,1.0502,1.0507,1.0511,1.0453,1.0453,1.0453,0,0,1.0626,1.0615,1.0621,1.0612,1.0598,1.0584,1.0586,1.0567,1.0559,1.0561,1.0539,1.0538,1.0531,1.0523,1.0518,1.0547,1.0531,1.0546,1.0569,1.0575,1.0579,1.0583,1.0594,1.0598,1.0548,1.0548,1.0549,0,1.0649,1.0647,1.0626,1.0628,1.0623,1.0597,1.0603,1.0596,1.0581,1.0578,1.0567,1.0559,1.0548,1.0553,1.056,1.0557,1.0558,1.0548,1.058,1.0584,1.0587,1.0597,1.0601,1.055,1.055,1.055,1.055,0,1.0677,1.0676,1.0682,1.0669,1.0665,1.0669,1.0649,1.0648,1.0634,1.0621,1.0624,1.061,1.0602,1.0602,1.0588,1.0605,1.0599,1.0585,1.0565,1.0594,1.0603,1.0607,1.0553,1.0553,1.0552,1.0552,0,0,1.0729,1.0705,1.0707,1.0701,1.0685,1.0684,1.0687,1.0679,1.0679,1.0669,1.0672,1.0667,1.0653,1.0648,1.0633,1.0638,1.0663,1.0622,1.0622,1.0631,1.0681,1.0692,1.0697,1.0652,1.0653,1.0653,1.0682,0,1.0757,1.0761,1.0743,1.0751,1.0751,1.0727,1.0729,1.072,1.0708,1.0706,1.0693,1.069,1.0672,1.0669,1.0673,1.0659,1.0673,1.0657,1.0654,1.0654,1.0658,1.0702,1.0713,1.0741,1.0686,1.0686,1.0687,0,1.0791,1.0784,1.0793,1.0776,1.0775,1.0778,1.077,1.0768,1.0757,1.0748,1.0742,1.0726,1.0728,1.0709,1.0712,1.0702,1.07,1.0693,1.0693,1.0692,1.0672,1.0702,1.075,1.0754,1.0692,1.0692,1.0691,0,1.0828,1.0821,1.0826,1.0821,1.0802,1.0805,1.0797,1.0785,1.0782,1.0775,1.0773,1.0766,1.0762,1.0758,1.074,1.0728,1.0745,1.0725,1.0738,1.0739,1.0742,1.0742,1.0791,1.0741,1.0741,1.0741,1.0741,0,1.0862,1.0868,1.0842,1.0845,1.0852,1.0831,1.0838,1.0828,1.0817,1.0818,1.0797,1.0798,1.0774,1.0773,1.0759,1.0764,1.0762,1.0755,1.0751,1.0757,1.0758,1.0755,1.0753,1.0742,1.0742,1.0742,1.0742,0,1.0904,1.0887,1.0891,1.0873,1.0868,1.0874,1.0859,1.0861,1.0848,1.0849,1.0848,1.0829,1.0826,1.0808,1.0801,1.0791,1.0801,1.0794,1.0805,1.0803,1.0817,1.0816,1.0865,1.0871,1.0818,1.0818,1.0819,0,1.0927,1.0931,1.0914,1.0913,1.0906,1.0905,1.0902,1.0882,1.0879,1.0867,1.0871,1.0867,1.0862,1.0859,1.0844,1.0839,1.0831,1.0848,1.083,1.0836,1.0831,1.0831,1.0832,1.0852,1.0853,1.0854,1.0854,0,1.0969,1.0961,1.0957,1.0951,1.0948,1.0942,1.0935,1.0935,1.0913,1.0912,1.0909,1.0905,1.0899,1.0895,1.0887,1.0879,1.0863,1.086,1.0863,1.0869,1.0875,1.0872,1.0816,1.0859,1.0858,1.0858,1.0858,1.0858,1.1002,1.1005,1.0994,1.0991,1.0983,1.0977,1.0979,1.0967,1.0964,1.0957,1.0945,1.0944,1.0934,1.0922,1.0915,1.0914,1.0905,1.0909,1.091,1.0911,1.0914,1.0876,1.0913,1.0913,1.0912,1.0912,1.0912,0,1.1043,1.1035,1.1032,1.1023,1.1021,1.1007,1.0998,1.0997,1.0997,1.0988,1.0984,1.0981,1.0978,1.0963,1.0958,1.096,1.0953,1.0959,1.0959,1.0958,1.0923,1.0921,1.0966,1.0966,1.0965,1.0965,1.0965,1.0965,1.1064,1.1069,1.1059,1.106,1.1052,1.1051,1.1047,1.1042,1.1035,1.1033,1.103,1.102,1.1009,1.1003,1.1,1.0995,1.0995,1.1004,1.0997,1.0965,1.096,1.0955,1.0953,1.1004,1.1004,1.1032,1.1032,1.1033]}]]